| time (UTC) | temp F | wind direction | speed MPH | gust MPH | rain 1hr in | rain 24hr in | rain mn in | humidity % | barometer mb |
| 20260905133059 | 75 | 86 | 0.0 | 0.0 | 0.00 | 0.00 | 0.00 | 73 | 1009.5 |
| 20260905131605 | 74 | 85 | 0.0 | 0.0 | 0.00 | 0.00 | 0.00 | 74 | 1009.3 |
| 20260905130056 | 74 | 85 | 0.0 | 0.0 | 0.00 | 0.00 | 0.00 | 73 | 1009.1 |
| 20260905124555 | 74 | 86 | 0.0 | 0.0 | 0.00 | 0.00 | 0.00 | 73 | 1009.0 |
| 20260905123106 | 75 | 103 | 0.0 | 0.0 | 0.00 | 0.00 | 0.00 | 72 | 1009.0 |
| 20260905121549 | 74 | 90 | 0.0 | 0.0 | 0.00 | 0.00 | 0.00 | 72 | 1009.0 |
| 20260905120048 | 75 | 59 | 0.0 | 0.0 | 0.00 | 0.00 | 0.00 | 72 | 1008.8 |
| 20260905114549 | 75 | 59 | 0.0 | 0.0 | 0.00 | 0.00 | 0.00 | 71 | 1008.8 |
| 20260905113024 | 75 | 96 | 0.0 | 0.0 | 0.00 | 0.00 | 0.00 | 70 | 1008.8 |
| 20260905111514 | 76 | 96 | 0.0 | 2.0 | 0.00 | 0.00 | 0.00 | 69 | 1008.9 |
| 20260905110011 | 76 | 92 | 0.0 | 0.0 | 0.00 | 0.00 | 0.00 | 69 | 1008.8 |
| 20260905104510 | 76 | 104 | 0.0 | 0.0 | 0.00 | 0.00 | 0.00 | 69 | 1008.7 |
| 20260905103010 | 76 | 104 | 0.0 | 0.0 | 0.00 | 0.00 | 0.00 | 69 | 1008.7 |
| 20260905101508 | 76 | 104 | 0.0 | 0.0 | 0.00 | 0.00 | 0.00 | 68 | 1008.9 |
| 20260905100005 | 76 | 104 | 0.0 | 0.0 | 0.00 | 0.00 | 0.00 | 68 | 1008.9 |
| 20260905094505 | 76 | 100 | 0.0 | 0.0 | 0.00 | 0.00 | 0.00 | 67 | 1008.7 |
| 20260905093004 | 77 | 100 | 0.0 | 0.0 | 0.00 | 0.00 | 0.00 | 67 | 1008.7 |
| 20260905091503 | 77 | 100 | 0.0 | 0.0 | 0.00 | 0.00 | 0.00 | 67 | 1008.9 |
| 20260905090059 | 77 | 100 | 0.0 | 2.0 | 0.00 | 0.00 | 0.00 | 66 | 1008.7 |
| 20260905084609 | 77 | 105 | 0.0 | 0.0 | 0.00 | 0.00 | 0.00 | 67 | 1008.8 |
| 20260905083057 | 77 | 105 | 0.0 | 0.0 | 0.00 | 0.00 | 0.00 | 65 | 1008.8 |
| 20260905081553 | 77 | 105 | 0.0 | 0.0 | 0.00 | 0.00 | 0.00 | 65 | 1008.9 |
| 20260905080028 | 78 | 105 | 0.0 | 0.0 | 0.00 | 0.00 | 0.00 | 64 | 1009.1 |
| 20260905074519 | 79 | 105 | 0.0 | 0.0 | 0.00 | 0.00 | 0.00 | 63 | 1009.1 |
| 20260905073023 | 79 | 128 | 0.0 | 0.0 | 0.00 | 0.00 | 0.00 | 63 | 1009.0 |
| 20260905071519 | 79 | 128 | 0.0 | 0.0 | 0.00 | 0.00 | 0.00 | 63 | 1009.0 |
| 20260905070015 | 80 | 128 | 0.0 | 0.0 | 0.00 | 0.00 | 0.00 | 60 | 1008.8 |
| 20260905064514 | 81 | 128 | 0.0 | 0.0 | 0.00 | 0.00 | 0.00 | 59 | 1009.0 |
| 20260905063114 | 81 | 105 | 0.0 | 0.0 | 0.00 | 0.00 | 0.00 | 59 | 1008.9 |
| 20260905061546 | 81 | 100 | 1.0 | 3.0 | 0.00 | 0.00 | 0.00 | 58 | 1008.8 |
| 20260905060055 | 82 | 95 | 0.0 | 0.0 | 0.00 | 0.00 | 0.00 | 58 | 1008.8 |
| 20260905054546 | 82 | 86 | 0.0 | 2.0 | 0.00 | 0.00 | 0.00 | 56 | 1008.7 |
| 20260905053040 | 83 | 99 | 0.0 | 4.0 | 0.00 | 0.00 | 0.00 | 52 | 1008.5 |
| 20260905051551 | 83 | 100 | 0.0 | 0.0 | 0.00 | 0.00 | 0.00 | 50 | 1008.4 |
| 20260905050041 | 84 | 260 | 0.0 | 0.0 | 0.00 | 0.00 | 0.00 | 48 | 1008.3 |
| 20260905044542 | 85 | 260 | 0.0 | 0.0 | 0.00 | 0.00 | 0.00 | 46 | 1008.2 |
| 20260905043038 | 85 | 260 | 0.0 | 0.0 | 0.00 | 0.00 | 0.00 | 45 | 1008.3 |
| 20260905041535 | 85 | 260 | 0.0 | 0.0 | 0.00 | 0.00 | 0.00 | 46 | 1008.4 |
| 20260905040046 | 85 | 260 | 0.0 | 0.0 | 0.00 | 0.00 | 0.00 | 46 | 1008.3 |
| 20260905034534 | 85 | 260 | 0.0 | 0.0 | 0.00 | 0.00 | 0.00 | 45 | 1008.2 |
| 20260905033032 | 85 | 260 | 0.0 | 0.0 | 0.00 | 0.00 | 0.00 | 44 | 1008.0 |
| 20260905031539 | 86 | 260 | 0.0 | 0.0 | 0.00 | 0.00 | 0.00 | 43 | 1007.9 |
| 20260905030034 | 86 | 260 | 0.0 | 0.0 | 0.00 | 0.00 | 0.00 | 42 | 1007.7 |
| 20260905024528 | 87 | 260 | 0.0 | 0.0 | 0.00 | 0.00 | 0.00 | 42 | 1007.5 |
| 20260905023028 | 87 | 260 | 0.0 | 0.0 | 0.00 | 0.00 | 0.00 | 40 | 1007.1 |
| 20260905021536 | 89 | 260 | 0.0 | 0.0 | 0.00 | 0.00 | 0.00 | 38 | 1007.0 |
| 20260905020029 | 90 | 260 | 0.0 | 0.0 | 0.00 | 0.00 | 0.00 | 37 | 1006.9 |
| 20260905014524 | 91 | 283 | 0.0 | 8.0 | 0.00 | 0.00 | 0.00 | 35 | 1006.8 |
| 20260905013023 | 91 | 294 | 0.0 | 5.0 | 0.00 | 0.00 | 0.00 | 34 | 1006.7 |
| 20260905011522 | 92 | 295 | 2.0 | 7.0 | 0.00 | 0.00 | 0.00 | 32 | 1006.7 |
| 20260905010026 | 93 | 304 | 3.0 | 7.0 | 0.00 | 0.00 | 0.00 | 31 | 1006.6 |
| 20260905004522 | 94 | 303 | 3.0 | 9.0 | 0.00 | 0.00 | 0.00 | 31 | 1006.5 |
| 20260905003035 | 94 | 291 | 6.0 | 12.0 | 0.00 | 0.02 | 0.00 | 32 | 1006.5 |
| 20260905001517 | 95 | 280 | 3.0 | 7.0 | 0.00 | 0.02 | 0.00 | 33 | 1006.2 |
| 20260905000016 | 95 | 275 | 7.0 | 15.0 | 0.00 | 0.02 | 0.00 | 32 | 1006.2 |
| 20260904234511 | 94 | 302 | 3.0 | 11.0 | 0.00 | 0.02 | 0.00 | 36 | 1006.2 |
| 20260904233028 | 95 | 284 | 8.0 | 13.0 | 0.00 | 0.04 | 0.00 | 34 | 1006.4 |
| 20260904231509 | 95 | 300 | 5.0 | 12.0 | 0.00 | 0.04 | 0.00 | 35 | 1006.4 |
| 20260904230018 | 95 | 269 | 5.0 | 11.0 | 0.00 | 0.04 | 0.00 | 33 | 1006.5 |
| 20260904224538 | 95 | 313 | 4.0 | 13.0 | 0.00 | 0.04 | 0.00 | 33 | 1006.6 |
| 20260904214552 | 92 | 279 | 6.0 | 11.0 | 0.00 | 0.04 | 0.00 | 39 | 1007.0 |
| 20260904213052 | 93 | 284 | 7.0 | 10.0 | 0.00 | 0.04 | 0.00 | 39 | 1007.2 |
| 20260904211549 | 93 | 293 | 7.0 | 11.0 | 0.00 | 0.04 | 0.00 | 39 | 1007.4 |
| 20260904210050 | 93 | 109 | 5.0 | 13.0 | 0.00 | 0.04 | 0.00 | 39 | 1007.6 |
| 20260904204544 | 92 | 290 | 4.0 | 8.0 | 0.00 | 0.04 | 0.00 | 41 | 1007.7 |
| 20260904203044 | 95 | 305 | 2.0 | 7.0 | 0.00 | 0.04 | 0.00 | 38 | 1007.9 |
| 20260904201550 | 94 | 296 | 3.0 | 7.0 | 0.00 | 0.04 | 0.00 | 36 | 1008.1 |
| 20260904200039 | 96 | 128 | 0.0 | 2.0 | 0.00 | 0.04 | 0.00 | 37 | 1008.4 |
| 20260904194537 | 95 | 274 | 1.0 | 6.0 | 0.00 | 0.04 | 0.00 | 37 | 1008.6 |
| 20260904193035 | 93 | 262 | 0.0 | 6.0 | 0.00 | 0.04 | 0.00 | 40 | 1008.9 |
| 20260904191537 | 91 | 268 | 1.0 | 9.0 | 0.00 | 0.04 | 0.00 | 40 | 1009.1 |
| 20260904190031 | 92 | 265 | 3.0 | 8.0 | 0.00 | 0.04 | 0.00 | 43 | 1009.2 |
| 20260904184531 | 94 | 207 | 1.0 | 4.0 | 0.00 | 0.04 | 0.00 | 46 | 1009.4 |
| 20260904183025 | 91 | 295 | 0.0 | 4.0 | 0.00 | 0.04 | 0.00 | 47 | 1009.7 |
| 20260904181522 | 90 | 266 | 0.0 | 4.0 | 0.00 | 0.04 | 0.00 | 49 | 1009.8 |
| 20260904180019 | 90 | 153 | 2.0 | 5.0 | 0.00 | 0.04 | 0.00 | 51 | 1010.0 |
| 20260904174524 | 90 | 119 | 0.0 | 11.0 | 0.00 | 0.04 | 0.00 | 51 | 1010.2 |
| 20260904173013 | 89 | 134 | 0.0 | 7.0 | 0.00 | 0.04 | 0.00 | 54 | 1010.3 |
| 20260904171512 | 88 | 126 | 0.0 | 7.0 | 0.00 | 0.04 | 0.00 | 56 | 1010.6 |
| 20260904170008 | 86 | 147 | 0.0 | 5.0 | 0.00 | 0.04 | 0.00 | 57 | 1010.7 |
| 20260904164504 | 86 | 281 | 1.0 | 6.0 | 0.00 | 0.04 | 0.00 | 59 | 1010.6 |
| 20260904163003 | 85 | 123 | 3.0 | 6.0 | 0.00 | 0.04 | 0.00 | 59 | 1010.6 |
| 20260904161608 | 85 | 98 | 2.0 | 7.0 | 0.00 | 0.04 | 0.00 | 60 | 1010.5 |
| 20260904160057 | 83 | 121 | 0.0 | 4.0 | 0.00 | 0.04 | 0.00 | 64 | 1010.5 |
| 20260904154556 | 83 | 221 | 0.0 | 1.0 | 0.00 | 0.04 | 0.00 | 64 | 1010.5 |
| 20260904153031 | 82 | 90 | 1.0 | 5.0 | 0.00 | 0.04 | 0.00 | 64 | 1010.5 |
| 20260904151525 | 84 | 156 | 2.0 | 6.0 | 0.00 | 0.04 | 0.00 | 61 | 1010.5 |
| 20260904150035 | 83 | 96 | 1.0 | 6.0 | 0.00 | 0.04 | 0.00 | 64 | 1010.4 |
| 20260904144518 | 82 | 103 | 0.0 | 5.0 | 0.00 | 0.04 | 0.00 | 65 | 1010.5 |
| 20260904143028 | 81 | 108 | 0.0 | 3.0 | 0.00 | 0.04 | 0.00 | 67 | 1010.4 |
| 20260904141513 | 80 | 112 | 0.0 | 0.0 | 0.00 | 0.04 | 0.00 | 68 | 1010.4 |
| 20260904140006 | 78 | 113 | 0.0 | 2.0 | 0.00 | 0.04 | 0.00 | 71 | 1010.2 |
| 20260904134505 | 77 | 106 | 0.0 | 4.0 | 0.00 | 0.04 | 0.00 | 73 | 1010.0 |